Weather in Borodulino

Russia / Perm Krai     57°59′53″N   54°22′53″E
temp.,
°C
wind,
m/s
gust,
m/s
humid.,
%
clouds,
%
prec.,
mm/h
press.,
hPa
HPBL,
m
25 february, thu
thu2523:00−26nnw24980 0.0 103287
02:00−28n22990 0.0 103220
05:00−29nw12980 0.0 103219
08:00−29w11991 0.0 103119
11:00−23ssw12890 0.0 1030168
14:00−19s24870 0.0 1029341
17:00−19s36890 0.0 1027375
20:00−24sse23970 0.0 102627
26 february, fri
fri2623:00−25sse259926 0.0 102695
02:00−27sse259810 0.0 1025100
05:00−28sse25985 0.0 1025117
08:00−29se37970 0.0 1024148
11:00−25sse379642 0.0 1024256
14:00−19sse4792100 0.0 1022392
17:00−17sse4891100 0.0 1021513
20:00−19sse41296100 0.0 1018463
27 february, sat
sat2723:00−20sse4139599 0.1 1017440
02:00−19se5159496 0.0 1014537
05:00−18se5149298 0.0 1011586
08:00−18ese51491100 0.0 1009530
11:00−17ese51191100 0.1 1008415
14:00−15e5993100 0.4 1006509
17:00−14e5991100 0.8 1006588
20:00−14e51093100 0.3 1007573
28 february, sun
sun2823:00−17e51093100 0.5 1008470
02:00−18ene4995100 0.1 1007437
05:00−18ene4995100 0.3 1008423
08:00−19ne4896100 0.2 1009407
11:00−17ne4792100 0.3 1010433
14:00−15ne4689100 0.1 1010500
17:00−15ne4791100 0.3 1011509
20:00−16nne389598 0.1 1013427
1 march, mon
mon123:00−18nne379899 0.1 1014217
02:00−21nne359979 0.0 1016123
05:00−22nne369849 0.0 1017123
08:00−23nne369719 0.0 1019113
11:00−18nne23919 0.0 1019198
14:00−13nnw238438 0.0 1019335
17:00−11wnw138641 0.0 1018377
20:00−14wsw249652 0.0 101793